Volver al catálogo

STARLINK-11711

ActivoComunicacionesVLEO
NORAD 64378·PAYLOAD·🇺🇸 United States

Lanzado Jun 13, 2025 desde Cape Canaveral Space Force Station

Loading…

Próximos Pases (próximas 24 horas)

TLE

ActualizadoSource: CelesTrak SupGP

Época: Sep 15, 2026, 02:53 UTC

1 64378C 25127J   26258.12062500 -.00107070  00000+0 -83139-3 0  2585
2 64378  43.0010  22.4654 0001802 269.7696 234.3504 15.70897443    17

Sigue STARLINK-11711 en tiempo real con AllMySat

Download on the App Store